GW5359 Weather Reports


Display with metric or nautical units.
time (UTC)temp
F
wind
direction
speed
MPH
gust
MPH
rain 1hr
in
rain 24hr
in
rain mn
in
humidity
%
barometer
mb
20260906215525 90 0.0 0.0 0.00 0.00 0.00 1012.7
20260906215025 90 0.0 0.0 0.00 0.00 0.00 1012.7
20260906214525 91 0.0 0.0 0.00 0.00 0.00 1012.7
20260906214025 92 0.0 0.0 0.00 0.00 0.00 100 1012.7
20260906213525 93 0.0 0.0 0.00 0.00 0.00 98 1012.8
20260906213025 93 0.0 0.0 0.00 0.00 0.00 97 1013.0
20260906212525 91 0.0 0.0 0.00 0.00 0.00 1013.2
20260906212025 89 0.0 0.0 0.00 0.00 0.00 1013.4
20260906211525 88 0.0 0.0 0.00 0.00 0.00 1013.6
20260906211025 88 0.0 0.0 0.00 0.00 0.00 1013.6
20260906210525 88 0.0 0.0 0.00 0.00 0.00 1013.7
20260906210025 88 0.0 0.0 0.00 0.00 0.00 1013.8
20260906205525 88 0.0 0.0 0.00 0.00 0.00 100 1013.7
20260906205025 88 0.0 0.0 0.00 0.00 0.00 97 1013.7
20260906204525 90 0.0 0.0 0.00 0.00 0.00 97 1013.6
20260906204025 93 0.0 0.0 0.00 0.00 0.00 91 1013.5
20260906203525 96 0.0 0.0 0.00 0.00 0.00 87 1013.5
20260906203025 95 0.0 0.0 0.00 0.00 0.00 90 1013.5
20260906202525 94 0.0 0.0 0.00 0.00 0.00 88 1013.6
20260906202025 96 0.0 0.0 0.00 0.00 0.00 87 1013.6
20260906201525 96 0.0 0.0 0.00 0.00 0.00 1013.7
20260906201025 96 0.0 0.0 0.00 0.00 0.00 1013.8
20260906200525 95 0.0 0.0 0.00 0.00 0.00 1013.9
20260906200025 93 0.0 0.0 0.00 0.00 0.00 1014.0
20260906195525 91 0.0 0.0 0.00 0.00 0.00 1014.1
20260906195025 90 0.0 0.0 0.00 0.00 0.00 1014.2
20260906194525 89 0.0 0.0 0.00 0.00 0.00 1014.3
20260906194015 89 0.0 0.0 0.00 0.00 0.00 1014.4
20260906193525 89 0.0 0.0 0.00 0.00 0.00 1014.5
20260906193023 90 0.0 0.0 0.00 0.00 0.00 1014.5
20260906192516 90 0.0 0.0 0.00 0.00 0.00 1014.6
20260906192020 90 0.0 0.0 0.00 0.00 0.00 1014.6
20260906191518 91 0.0 0.0 0.00 0.00 0.00 1014.7
20260906191017 90 0.0 0.0 0.00 0.00 0.00 1014.9
20260906190515 89 0.0 0.0 0.00 0.00 0.00 1014.9
20260906190025 90 0.0 0.0 0.00 0.00 0.00 1015.0
20260906185525 92 0.0 0.0 0.00 0.00 0.00 1015.0
20260906185025 93 0.0 0.0 0.00 0.00 0.00 1015.1
20260906184525 93 0.0 0.0 0.00 0.00 0.00 1015.2
20260906184025 93 0.0 0.0 0.00 0.00 0.00 1015.3
20260906183525 92 0.0 0.0 0.00 0.00 0.00 1015.5
20260906183025 92 0.0 0.0 0.00 0.00 0.00 1015.5
20260906182525 91 0.0 0.0 0.00 0.00 0.00 1015.6
20260906182025 91 0.0 0.0 0.00 0.00 0.00 1015.7
20260906181525 92 0.0 0.0 0.00 0.00 0.00 1015.7
20260906181025 92 0.0 0.0 0.00 0.00 0.00 1015.8
20260906180525 93 0.0 0.0 0.00 0.00 0.00 1016.0
20260906180025 92 0.0 0.0 0.00 0.00 0.00 1016.2
20260906175525 92 0.0 0.0 0.00 0.00 0.00 1016.3
20260906175025 92 0.0 0.0 0.00 0.00 0.00 1016.5
20260906174525 91 0.0 0.0 0.00 0.00 0.00 1016.6
20260906174025 91 0.0 0.0 0.00 0.00 0.00 1016.6
20260906173525 90 0.0 0.0 0.00 0.00 0.00 1016.7
20260906173025 90 0.0 0.0 0.00 0.00 0.00 1016.7
20260906172525 90 0.0 0.0 0.00 0.00 0.00 1016.7
20260906172025 90 0.0 0.0 0.00 0.00 0.00 1016.8
20260906171525 90 0.0 0.0 0.00 0.00 0.00 1016.9
20260906171025 89 0.0 0.0 0.00 0.00 0.00 1017.0
20260906170525 88 0.0 0.0 0.00 0.00 0.00 1017.0
20260906170025 89 0.0 0.0 0.00 0.00 0.00 1017.0
20260906165525 89 0.0 0.0 0.00 0.00 0.00 1017.1
20260906165025 89 0.0 0.0 0.00 0.00 0.00 1017.1
20260906164525 89 0.0 0.0 0.00 0.00 0.00 1017.1
20260906164025 88 0.0 0.0 0.00 0.00 0.00 1017.1
20260906163525 86 0.0 0.0 0.00 0.00 0.00 1017.0
20260906163025 86 0.0 0.0 0.00 0.00 0.00 1016.9
20260906162515 89 0.0 0.0 0.00 0.00 0.00 1016.8
20260906162024 90 0.0 0.0 0.00 0.00 0.00 1016.8
20260906161522 89 0.0 0.0 0.00 0.00 0.00 1016.8
20260906161015 89 0.0 0.0 0.00 0.00 0.00 1016.8
20260906160519 89 0.0 0.0 0.00 0.00 0.00 1016.8
20260906160017 87 0.0 0.0 0.00 0.00 0.00 1016.8
20260906155515 86 0.0 0.0 0.00 0.00 0.00 1016.7
20260906154525 86 0.0 0.0 0.00 0.00 0.00 1016.7
20260906154025 86 0.0 0.0 0.00 0.00 0.00 1016.6
20260906153525 86 0.0 0.0 0.00 0.00 0.00 1016.5
20260906153025 86 0.0 0.0 0.00 0.00 0.00 1016.4
20260906152525 85 0.0 0.0 0.00 0.00 0.00 1016.4
20260906152026 84 0.0 0.0 0.00 0.00 0.00 1016.2
20260906151525 83 0.0 0.0 0.00 0.00 0.00 1016.1
20260906151025 81 0.0 0.0 0.00 0.00 0.00 1016.1
20260906150525 79 0.0 0.0 0.00 0.00 0.00 1016.2
20260906150025 74 0.0 0.0 0.00 0.00 0.00 1016.4
20260906145525 70 0.0 0.0 0.00 0.00 0.00 1016.5
20260906145025 69 0.0 0.0 0.00 0.00 0.00 1016.4
20260906144525 70 0.0 0.0 0.00 0.00 0.00 1016.4
20260906144025 71 0.0 0.0 0.00 0.00 0.00 1016.4
20260906143525 70 0.0 0.0 0.00 0.00 0.00 1016.6
20260906143025 68 0.0 0.0 0.00 0.00 0.00 1016.8
20260906142525 66 0.0 0.0 0.00 0.00 0.00 1017.0
20260906142025 65 0.0 0.0 0.00 0.00 0.00 1017.1
20260906141525 64 0.0 0.0 0.00 0.00 0.00 1017.1
20260906141025 64 0.0 0.0 0.00 0.00 0.00 1017.1
20260906140525 64 0.0 0.0 0.00 0.00 0.00 1017.1
20260906140025 63 0.0 0.0 0.00 0.00 0.00 1017.1
20260906135525 63 0.0 0.0 0.00 0.00 0.00 1017.1
20260906135025 63 0.0 0.0 0.00 0.00 0.00 1017.0
20260906134525 62 0.0 0.0 0.00 0.00 0.00 1016.9
20260906134025 62 0.0 0.0 0.00 0.00 0.00 1016.8
20260906133525 62 0.0 0.0 0.00 0.00 0.00 1016.6
20260906133025 61 0.0 0.0 0.00 0.00 0.00 1016.4
20260906132525 61 0.0 0.0 0.00 0.00 0.00 1016.2
20260906132025 62 0.0 0.0 0.00 0.00 0.00 1016.1
20260906131525 62 0.0 0.0 0.00 0.00 0.00 1016.0
20260906131015 62 0.0 0.0 0.00 0.00 0.00 1015.9
20260906130522 62 0.0 0.0 0.00 0.00 0.00 1015.8
20260906130021 62 0.0 0.0 0.00 0.00 0.00 1015.8
20260906125515 61 0.0 0.0 0.00 0.00 0.00 1015.7
20260906125017 61 0.0 0.0 0.00 0.00 0.00 1015.7
20260906124516 61 0.0 0.0 0.00 0.00 0.00 1015.7
20260906123525 60 0.0 0.0 0.00 0.00 0.00 1015.7
20260906123025 60 0.0 0.0 0.00 0.00 0.00 1015.6
20260906122525 60 0.0 0.0 0.00 0.00 0.00 1015.5
20260906122025 60 0.0 0.0 0.00 0.00 0.00 1015.4
20260906121525 60 0.0 0.0 0.00 0.00 0.00 1015.4
20260906121025 61 0.0 0.0 0.00 0.00 0.00 1015.4
20260906120525 61 0.0 0.0 0.00 0.00 0.00 1015.4
20260906120025 61 0.0 0.0 0.00 0.00 0.00 1015.5
20260906115525 61 0.0 0.0 0.00 0.00 0.00 1015.6
20260906115025 61 0.0 0.0 0.00 0.00 0.00 1015.6
20260906114525 61 0.0 0.0 0.00 0.00 0.00 1015.6
20260906114025 61 0.0 0.0 0.00 0.00 0.00 1015.5
20260906113525 61 0.0 0.0 0.00 0.00 0.00 1015.4
20260906113025 61 0.0 0.0 0.00 0.00 0.00 1015.3
20260906112525 61 0.0 0.0 0.00 0.00 0.00 1015.3
20260906112025 61 0.0 0.0 0.00 0.00 0.00 1015.2
20260906111525 62 0.0 0.0 0.00 0.00 0.00 1015.1
20260906111025 62 0.0 0.0 0.00 0.00 0.00 1015.1
20260906110525 61 0.0 0.0 0.00 0.00 0.00 1015.0
20260906110025 61 0.0 0.0 0.00 0.00 0.00 1015.0
20260906105525 61 0.0 0.0 0.00 0.00 0.00 1015.1
20260906105025 61 0.0 0.0 0.00 0.00 0.00 1015.2
20260906104525 62 0.0 0.0 0.00 0.00 0.00 1015.2
20260906104025 62 0.0 0.0 0.00 0.00 0.00 1015.3
20260906103525 62 0.0 0.0 0.00 0.00 0.00 1015.3
20260906103025 62 0.0 0.0 0.00 0.00 0.00 1015.3
20260906102526 62 0.0 0.0 0.00 0.00 0.00 1015.3
20260906102025 62 0.0 0.0 0.00 0.00 0.00 1015.3
20260906101525 62 0.0 0.0 0.00 0.00 0.00 1015.3
20260906101025 63 0.0 0.0 0.00 0.00 0.00 1015.3
20260906100525 63 0.0 0.0 0.00 0.00 0.00 1015.4
20260906100025 63 0.0 0.0 0.00 0.00 0.00 1015.4
20260906095515 63 0.0 0.0 0.00 0.00 0.00 1015.5
20260906095021 63 0.0 0.0 0.00 0.00 0.00 1015.5
20260906094519 63 0.0 0.0 0.00 0.00 0.00 1015.5
20260906094015 63 0.0 0.0 0.00 0.00 0.00 1015.5
20260906093516 63 0.0 0.0 0.00 0.00 0.00 1015.4
20260906092526 64 0.0 0.0 0.00 0.00 0.00 1015.3
20260906092025 64 0.0 0.0 0.00 0.00 0.00 1015.1
20260906091525 64 0.0 0.0 0.00 0.00 0.00 1015.0
20260906091025 64 0.0 0.0 0.00 0.00 0.00 1014.9
20260906090525 64 0.0 0.0 0.00 0.00 0.00 1014.8
20260906090025 65 0.0 0.0 0.00 0.00 0.00 1014.8
20260906085525 65 0.0 0.0 0.00 0.00 0.00 1014.9
20260906085025 65 0.0 0.0 0.00 0.00 0.00 1015.1
20260906084525 65 0.0 0.0 0.00 0.00 0.00 1015.3
20260906084025 65 0.0 0.0 0.00 0.00 0.00 1015.4
20260906083525 66 0.0 0.0 0.00 0.00 0.00 1015.6
20260906083025 66 0.0 0.0 0.00 0.00 0.00 1015.7
20260906082525 66 0.0 0.0 0.00 0.00 0.00 1015.7
20260906082025 66 0.0 0.0 0.00 0.00 0.00 1015.8
20260906081525 67 0.0 0.0 0.00 0.00 0.00 1015.9
20260906081025 67 0.0 0.0 0.00 0.00 0.00 1016.0
20260906080525 67 0.0 0.0 0.00 0.00 0.00 1016.1
20260906080025 67 0.0 0.0 0.00 0.00 0.00 1016.1
20260906075525 67 0.0 0.0 0.00 0.00 0.00 1016.1
20260906075025 67 0.0 0.0 0.00 0.00 0.00 1016.1
20260906074525 67 0.0 0.0 0.00 0.00 0.00 1016.2
20260906074025 67 0.0 0.0 0.00 0.00 0.00 1016.2
20260906073525 67 0.0 0.0 0.00 0.00 0.00 1016.3
20260906073025 68 0.0 0.0 0.00 0.00 0.00 1016.4
20260906072525 68 0.0 0.0 0.00 0.00 0.00 1016.4
20260906072025 68 0.0 0.0 0.00 0.00 0.00 1016.4
20260906071525 68 0.0 0.0 0.00 0.00 0.00 1016.5
20260906071025 69 0.0 0.0 0.00 0.00 0.00 1016.4
20260906070525 69 0.0 0.0 0.00 0.00 0.00 1016.3
20260906070025 69 0.0 0.0 0.00 0.00 0.00 1016.3
20260906065515 70 0.0 0.0 0.00 0.00 0.00 1016.3
20260906065024 70 0.0 0.0 0.00 0.00 0.00 1016.3
20260906064522 70 0.0 0.0 0.00 0.00 0.00 1016.3
20260906064016 70 0.0 0.0 0.00 0.00 0.00 1016.2
20260906063519 70 0.0 0.0 0.00 0.00 0.00 1016.2
20260906063018 69 0.0 0.0 0.00 0.00 0.00 1016.1
20260906062516 69 0.0 0.0 0.00 0.00 0.00 1016.1
20260906061525 69 0.0 0.0 0.00 0.00 0.00 1016.3
20260906061025 69 0.0 0.0 0.00 0.00 0.00 1016.5
20260906060525 68 0.0 0.0 0.00 0.00 0.00 1016.5
20260906060025 68 0.0 0.0 0.00 0.00 0.00 1016.6
20260906055525 68 0.0 0.0 0.00 0.00 0.00 1016.5
20260906055025 68 0.0 0.0 0.00 0.00 0.00 1016.6
20260906054525 68 0.0 0.0 0.00 0.00 0.00 1016.7
20260906054025 69 0.0 0.0 0.00 0.00 0.00 1016.7
20260906053525 69 0.0 0.0 0.00 0.00 0.00 1016.7
20260906053025 69 0.0 0.0 0.00 0.00 0.00 1016.7
20260906052525 69 0.0 0.0 0.00 0.00 0.00 1016.6
20260906052025 69 0.0 0.0 0.00 0.00 0.00 1016.5
20260906051525 69 0.0 0.0 0.00 0.00 0.00 1016.4
20260906051025 69 0.0 0.0 0.00 0.00 0.00 1016.4
20260906050525 69 0.0 0.0 0.00 0.00 0.00 1016.4
20260906050025 69 0.0 0.0 0.00 0.00 0.00 1016.4
20260906045525 69 0.0 0.0 0.00 0.00 0.00 1016.5
20260906045025 69 0.0 0.0 0.00 0.00 0.00 1016.4
20260906044525 69 0.0 0.0 0.00 0.00 0.00 1016.3
20260906044025 69 0.0 0.0 0.00 0.00 0.00 1016.2
20260906043525 69 0.0 0.0 0.00 0.00 0.00 1016.0
20260906043025 69 0.0 0.0 0.00 0.00 0.00 1015.8
20260906042526 69 0.0 0.0 0.00 0.00 0.00 1015.7
20260906042025 70 0.0 0.0 0.00 0.00 0.00 1015.6
20260906041525 70 0.0 0.0 0.00 0.00 0.00 1015.5
20260906041025 71 0.0 0.0 0.00 0.00 0.00 1015.3
20260906040525 72 0.0 0.0 0.00 0.00 0.00 1015.2
20260906040025 72 0.0 0.0 0.00 0.00 0.00 1015.1
20260906035525 73 0.0 0.0 0.00 0.00 0.00 1015.0
20260906035025 73 0.0 0.0 0.00 0.00 0.00 1015.1
20260906034525 73 0.0 0.0 0.00 0.00 0.00 1015.1
20260906034015 73 0.0 0.0 0.00 0.00 0.00 1015.0
20260906033523 73 0.0 0.0 0.00 0.00 0.00 1015.0
20260906033022 74 0.0 0.0 0.00 0.00 0.00 1014.9
20260906032515 75 0.0 0.0 0.00 0.00 0.00 1014.8
20260906032019 75 0.0 0.0 0.00 0.00 0.00 1014.7
20260906031517 75 0.0 0.0 0.00 0.00 0.00 1014.6
20260906031015 75 0.0 0.0 0.00 0.00 0.00 1014.5
20260906030025 75 0.0 0.0 0.00 0.00 0.00 1014.4
20260906025525 76 0.0 0.0 0.00 0.00 0.00 1014.4
20260906025025 76 0.0 0.0 0.00 0.00 0.00 1014.4
20260906024525 76 0.0 0.0 0.00 0.00 0.00 1014.3
20260906024025 76 0.0 0.0 0.00 0.00 0.00 1014.3
20260906023525 76 0.0 0.0 0.00 0.00 0.00 1014.4
20260906023025 76 0.0 0.0 0.00 0.00 0.00 1014.4
20260906022525 76 0.0 0.0 0.00 0.00 0.00 1014.3
20260906022026 76 0.0 0.0 0.00 0.00 0.00 1014.3
20260906021525 76 0.0 0.0 0.00 0.00 0.00 1014.3
20260906021025 76 0.0 0.0 0.00 0.00 0.00 1014.2
20260906020525 77 0.0 0.0 0.00 0.00 0.00 1014.0
20260906020025 78 0.0 0.0 0.00 0.00 0.00 99 1013.9
20260906015525 79 0.0 0.0 0.00 0.00 0.00 95 1013.8
20260906015025 79 0.0 0.0 0.00 0.00 0.00 91 1013.7
20260906014525 80 0.0 0.0 0.00 0.00 0.00 88 1013.6
20260906014025 80 0.0 0.0 0.00 0.00 0.00 87 1013.5
20260906013525 80 0.0 0.0 0.00 0.00 0.00 86 1013.5
20260906013025 81 0.0 0.0 0.00 0.00 0.00 84 1013.5
20260906012525 81 0.0 0.0 0.00 0.00 0.00 82 1013.5
20260906012025 82 0.0 0.0 0.00 0.00 0.00 80 1013.4
20260906011525 82 0.0 0.0 0.00 0.00 0.00 77 1013.4
20260906011025 83 0.0 0.0 0.00 0.00 0.00 73 1013.4
20260906010525 83 0.0 0.0 0.00 0.00 0.00 68 1013.3
20260906010025 84 0.0 0.0 0.00 0.00 0.00 64 1013.3
20260906005525 84 0.0 0.0 0.00 0.00 0.00 62 1013.3
20260906005026 84 0.0 0.0 0.00 0.00 0.00 60 1013.3
20260906004525 85 0.0 0.0 0.00 0.00 0.00 58 1013.3
20260906004025 85 0.0 0.0 0.00 0.00 0.00 58 1013.3
20260906003525 85 0.0 0.0 0.00 0.00 0.00 59 1013.2
20260906003025 86 0.0 0.0 0.00 0.00 0.00 59 1013.2
20260906002515 86 0.0 0.0 0.00 0.00 0.00 57 1013.1
20260906002022 86 0.0 0.0 0.00 0.00 0.00 55 1013.1
20260906001521 86 0.0 0.0 0.00 0.00 0.00 53 1013.1
20260906001015 87 0.0 0.0 0.00 0.00 0.00 51 1013.0
20260906000518 87 0.0 0.0 0.00 0.00 0.00 50 1013.0
20260906000016 87 0.0 0.0 0.00 0.00 0.00 51 1012.9
20260905235025 88 0.0 0.0 0.00 0.00 0.00 57 1012.8
20260905234525 89 0.0 0.0 0.00 0.00 0.00 54 1012.8
20260905234025 89 0.0 0.0 0.00 0.00 0.00 52 1012.7
20260905233525 89 0.0 0.0 0.00 0.00 0.00 52 1012.7
20260905233025 90 0.0 0.0 0.00 0.00 0.00 52 1012.6
20260905232525 90 0.0 0.0 0.00 0.00 0.00 50 1012.5
20260905232025 91 0.0 0.0 0.00 0.00 0.00 47 1012.4
20260905231525 91 0.0 0.0 0.00 0.00 0.00 42 1012.3
20260905231025 92 0.0 0.0 0.00 0.00 0.00 41 1012.2
20260905230525 93 0.0 0.0 0.00 0.00 0.00 42 1012.2
20260905230025 93 0.0 0.0 0.00 0.00 0.00 42 1012.1
20260905225525 94 0.0 0.0 0.00 0.00 0.00 40 1012.0
20260905225025 95 0.0 0.0 0.00 0.00 0.00 38 1012.0
20260905224525 96 0.0 0.0 0.00 0.00 0.00 38 1012.0
20260905224025 96 0.0 0.0 0.00 0.00 0.00 38 1012.0
20260905223525 95 0.0 0.0 0.00 0.00 0.00 37 1012.0
20260905223025 94 0.0 0.0 0.00 0.00 0.00 37 1012.0
20260905222525 95 0.0 0.0 0.00 0.00 0.00 36 1012.0
20260905222025 97 0.0 0.0 0.00 0.00 0.00 36 1012.1
20260905221525 97 0.0 0.0 0.00 0.00 0.00 39 1012.1
20260905221025 96 0.0 0.0 0.00 0.00 0.00 38 1012.2
20260905220525 95 0.0 0.0 0.00 0.00 0.00 36 1012.2
20260905220025 96 0.0 0.0 0.00 0.00 0.00 37 1012.2